Time,TemperatureF,DewpointF,PressureIn,WindDirection,WindDirectionDegrees,WindSpeedMPH,WindSpeedGustMPH,Humidity,HourlyPrecipIn,Conditions,Clouds,dailyrainin,SolarRadiationWatts/m^2,SoftwareType,DateUTC
2013-05-06 00:01:00,53.1,47.1,29.99,NNW,344,4.6,4.6,80,0.00,OVC,,0.00,0.0,WeatherDisplay:10.37,2013-05-06 05:01:00,
2013-05-06 00:06:00,53.1,47.1,29.99,NNW,340,6.0,6.0,80,0.00,OVC,,0.00,0.0,WeatherDisplay:10.37,2013-05-06 05:06:00,
2013-05-06 00:11:00,53.2,47.2,29.99,NNW,332,6.0,6.0,80,0.00,OVC,,0.00,0.0,WeatherDisplay:10.37,2013-05-06 05:11:00,
2013-05-06 00:16:00,53.3,47.3,29.99,NNW,331,5.8,5.8,80,0.00,OVC,,0.00,0.0,WeatherDisplay:10.37,2013-05-06 05:16:00,
2013-05-06 00:21:00,53.4,47.4,29.99,NNW,348,8.1,8.1,80,0.00,OVC,,0.00,0.0,WeatherDisplay:10.37,2013-05-06 05:21:00,
2013-05-06 00:26:00,53.6,47.2,29.99,North,355,7.0,7.0,79,0.00,OVC,,0.00,0.0,WeatherDisplay:10.37,2013-05-06 05:26:00,
2013-05-06 00:31:00,53.6,47.2,29.99,NNW,338,9.2,9.2,79,0.00,OVC,,0.00,0.0,WeatherDisplay:10.37,2013-05-06 05:31:00,
2013-05-06 00:36:00,53.6,47.2,29.99,NNW,348,8.1,8.1,79,0.00,OVC,,0.00,0.0,WeatherDisplay:10.37,2013-05-06 05:36:00,
2013-05-06 00:42:00,53.6,46.9,29.98,North,355,6.9,6.9,78,0.00,OVC,,0.00,0.0,WeatherDisplay:10.37,2013-05-06 05:42:00,
2013-05-06 00:47:00,53.6,46.9,29.98,North,355,6.9,6.9,78,0.00,OVC,,0.00,0.0,WeatherDisplay:10.37,2013-05-06 05:47:00,
2013-05-06 00:52:00,53.5,46.8,29.98,NNW,339,5.8,5.8,78,0.00,OVC,,0.00,0.0,WeatherDisplay:10.37,2013-05-06 05:52:00,
2013-05-06 00:57:00,53.5,46.8,29.98,NNW,335,7.0,7.0,78,0.00,OVC,,0.00,0.0,WeatherDisplay:10.37,2013-05-06 05:57:00,
2013-05-06 01:02:00,53.5,46.5,29.98,North,355,8.1,8.1,77,0.00,OVC,,0.00,0.0,WeatherDisplay:10.37,2013-05-06 06:02:00,
2013-05-06 01:07:00,53.5,46.5,29.98,North,355,8.1,8.1,77,0.00,OVC,,0.00,0.0,WeatherDisplay:10.37,2013-05-06 06:07:00,
2013-05-06 01:12:00,53.6,46.6,29.98,NNW,333,7.0,7.0,77,0.00,OVC,,0.00,0.0,WeatherDisplay:10.37,2013-05-06 06:12:00,
2013-05-06 01:17:00,53.5,46.5,29.98,North,5,8.1,8.1,77,0.00,OVC,,0.00,0.0,WeatherDisplay:10.37,2013-05-06 06:17:00,
2013-05-06 01:22:00,53.4,46.4,29.98,North,360,6.0,6.0,77,0.00,OVC,,0.00,0.0,WeatherDisplay:10.37,2013-05-06 06:22:00,
2013-05-06 01:27:00,53.3,46.6,29.98,North,355,6.9,6.9,78,0.00,OVC,,0.00,0.0,WeatherDisplay:10.37,2013-05-06 06:27:00,
2013-05-06 01:32:00,53.4,46.4,29.98,North,355,4.6,4.6,77,0.00,OVC,,0.00,0.0,WeatherDisplay:10.37,2013-05-06 06:32:00,
2013-05-06 01:37:00,53.4,46.0,29.97,NNW,342,3.5,3.5,76,0.00,OVC,,0.00,0.0,WeatherDisplay:10.37,2013-05-06 06:37:00,
2013-05-06 01:42:00,53.5,46.1,29.97,NNW,342,5.0,5.0,76,0.00,OVC,,0.00,0.0,WeatherDisplay:10.37,2013-05-06 06:42:00,
2013-05-06 01:47:00,53.5,46.1,29.97,NNW,344,4.0,4.0,76,0.00,OVC,,0.00,0.0,WeatherDisplay:10.37,2013-05-06 06:47:00,
2013-05-06 01:52:00,53.5,46.1,29.97,NNW,344,3.5,3.5,76,0.00,OVC,,0.00,0.0,WeatherDisplay:10.37,2013-05-06 06:52:00,
2013-05-06 01:57:00,53.3,45.9,29.96,NNW,344,5.0,5.0,76,0.00,OVC,,0.00,0.0,WeatherDisplay:10.37,2013-05-06 06:57:00,
2013-05-06 02:02:00,53.3,46.3,29.96,North,9,6.0,6.0,77,0.00,OVC,,0.00,0.0,WeatherDisplay:10.37,2013-05-06 07:02:00,
2013-05-06 02:07:00,53.2,46.5,29.96,North,5,4.6,4.6,78,0.00,OVC,,0.00,0.0,WeatherDisplay:10.37,2013-05-06 07:07:00,
2013-05-06 02:12:00,52.7,46.4,29.97,NNE,28,4.6,4.6,79,0.00,OVC,,0.00,0.0,WeatherDisplay:10.37,2013-05-06 07:12:00,
2013-05-06 02:17:00,52.4,46.1,29.97,NE,53,6.9,6.9,79,0.00,OVC,,0.00,0.0,WeatherDisplay:10.37,2013-05-06 07:17:00,
2013-05-06 02:22:00,52.1,45.8,29.97,NNE,21,4.0,4.0,79,0.00,OVC,,0.00,0.0,WeatherDisplay:10.37,2013-05-06 07:22:00,
2013-05-06 02:27:00,51.7,45.7,29.96,NNE,32,3.5,3.5,80,0.00,OVC,,0.00,0.0,WeatherDisplay:10.37,2013-05-06 07:27:00,
2013-05-06 02:32:00,51.5,45.5,29.96,North,360,4.0,4.0,80,0.00,OVC,,0.00,0.0,WeatherDisplay:10.37,2013-05-06 07:32:00,
2013-05-06 02:37:00,51.2,45.6,29.96,North,360,3.5,3.5,81,0.00,OVC,,0.00,0.0,WeatherDisplay:10.37,2013-05-06 07:37:00,
2013-05-06 02:42:00,50.9,45.3,29.96,NNW,346,4.6,4.6,81,0.00,OVC,,0.00,0.0,WeatherDisplay:10.37,2013-05-06 07:42:00,
2013-05-06 02:47:00,50.9,45.3,29.96,NNW,348,5.0,5.0,81,0.00,BKN,,0.00,0.0,WeatherDisplay:10.37,2013-05-06 07:47:00,
2013-05-06 02:52:00,50.8,45.2,29.95,NNW,344,5.0,5.0,81,0.00,BKN,,0.00,0.0,WeatherDisplay:10.37,2013-05-06 07:52:00,
2013-05-06 02:57:00,50.7,45.1,29.95,NNW,340,5.0,5.0,81,0.00,BKN,,0.00,0.0,WeatherDisplay:10.37,2013-05-06 07:57:00,
2013-05-06 03:02:00,50.8,45.2,29.95,NNW,331,6.9,6.9,81,0.00,BKN,,0.00,0.0,WeatherDisplay:10.37,2013-05-06 08:02:00,
2013-05-06 03:07:00,50.9,44.9,29.95,NNW,342,6.9,6.9,80,0.00,BKN,,0.00,0.0,WeatherDisplay:10.37,2013-05-06 08:07:00,
2013-05-06 03:12:00,51.0,44.7,29.95,NNW,333,9.2,9.2,79,0.00,BKN,,0.00,0.0,WeatherDisplay:10.37,2013-05-06 08:12:00,
2013-05-06 03:17:00,51.1,44.8,29.95,NNW,333,9.2,9.2,79,0.00,BKN,,0.00,0.0,WeatherDisplay:10.37,2013-05-06 08:17:00,
2013-05-06 03:22:00,51.2,44.9,29.95,North,350,9.2,9.2,79,0.00,BKN,,0.00,0.0,WeatherDisplay:10.37,2013-05-06 08:22:00,
2013-05-06 03:27:00,50.8,44.9,29.95,NNW,332,7.0,7.0,80,0.00,BKN,,0.00,0.0,WeatherDisplay:10.37,2013-05-06 08:27:00,
2013-05-06 03:32:00,50.6,44.7,29.95,NNW,339,8.1,8.1,80,0.00,CLR,,0.00,0.0,WeatherDisplay:10.37,2013-05-06 08:32:00,
2013-05-06 03:37:00,50.4,44.8,29.95,NNW,343,5.8,5.8,81,0.00,CLR,,0.00,0.0,WeatherDisplay:10.37,2013-05-06 08:37:00,
2013-05-06 03:42:00,50.3,44.7,29.94,NNW,333,8.1,8.1,81,0.00,CLR,,0.00,0.0,WeatherDisplay:10.37,2013-05-06 08:42:00,
2013-05-06 03:47:00,50.6,44.7,29.94,NNW,329,8.1,8.1,80,0.00,CLR,,0.00,0.0,WeatherDisplay:10.37,2013-05-06 08:47:00,
2013-05-06 03:52:00,51.1,44.8,29.94,NNW,331,6.9,6.9,79,0.00,CLR,,0.00,0.0,WeatherDisplay:10.37,2013-05-06 08:52:00,
2013-05-06 03:57:00,51.3,44.7,29.95,North,355,4.6,4.6,78,0.00,CLR,,0.00,0.0,WeatherDisplay:10.37,2013-05-06 08:57:00,
2013-05-06 04:02:00,50.6,44.3,29.95,NNW,347,4.6,4.6,79,0.00,CLR,,0.00,0.0,WeatherDisplay:10.37,2013-05-06 09:02:00,
2013-05-06 04:07:00,50.1,44.2,29.95,NNW,342,5.8,5.8,80,0.00,CLR,,0.00,0.0,WeatherDisplay:10.37,2013-05-06 09:07:00,
2013-05-06 04:12:00,49.9,44.0,29.95,NNW,342,5.8,5.8,80,0.00,CLR,,0.00,0.0,WeatherDisplay:10.37,2013-05-06 09:12:00,
2013-05-06 04:17:00,49.8,44.2,29.95,NNW,341,5.8,5.8,81,0.00,CLR,,0.00,0.0,WeatherDisplay:10.37,2013-05-06 09:17:00,
2013-05-06 04:22:00,49.7,44.1,29.95,NNW,342,6.0,6.0,81,0.00,CLR,,0.00,0.0,WeatherDisplay:10.37,2013-05-06 09:22:00,
2013-05-06 04:27:00,49.8,44.2,29.95,NNW,342,6.9,6.9,81,0.00,CLR,,0.00,0.0,WeatherDisplay:10.37,2013-05-06 09:27:00,
2013-05-06 04:32:00,49.9,44.3,29.95,NNW,338,8.1,8.1,81,0.00,CLR,,0.00,0.0,WeatherDisplay:10.37,2013-05-06 09:32:00,
2013-05-06 04:37:00,50.0,44.1,29.95,NNW,340,7.0,7.0,80,0.00,CLR,,0.00,0.0,WeatherDisplay:10.37,2013-05-06 09:37:00,
2013-05-06 04:42:00,49.9,44.3,29.95,NNW,332,6.9,6.9,81,0.00,CLR,,0.00,0.0,WeatherDisplay:10.37,2013-05-06 09:42:00,
2013-05-06 04:47:00,49.8,44.2,29.95,NW,316,5.8,5.8,81,0.00,SCT,,0.00,0.0,WeatherDisplay:10.37,2013-05-06 09:47:00,
2013-05-06 04:52:00,49.8,44.2,29.95,NNW,332,5.8,5.8,81,0.00,SCT,,0.00,0.0,WeatherDisplay:10.37,2013-05-06 09:52:00,
2013-05-06 04:57:00,49.8,44.2,29.95,NNW,336,7.0,7.0,81,0.00,SCT,,0.00,0.0,WeatherDisplay:10.37,2013-05-06 09:57:00,
2013-05-06 05:02:00,49.9,44.3,29.95,NNW,327,5.8,5.8,81,0.00,SCT,,0.00,0.0,WeatherDisplay:10.37,2013-05-06 10:02:00,
2013-05-06 05:07:00,50.1,44.5,29.95,NW,325,6.9,6.9,81,0.00,SCT,,0.00,0.0,WeatherDisplay:10.37,2013-05-06 10:07:00,
2013-05-06 05:12:00,50.4,44.8,29.95,NNW,340,6.9,6.9,81,0.00,SCT,,0.00,0.0,WeatherDisplay:10.37,2013-05-06 10:12:00,
2013-05-06 05:17:00,50.8,45.2,29.95,North,5,9.2,9.2,81,0.00,BKN,,0.00,0.0,WeatherDisplay:10.37,2013-05-06 10:17:00,
2013-05-06 05:22:00,51.6,45.3,29.95,North,5,11.5,11.5,79,0.00,BKN,,0.00,0.0,WeatherDisplay:10.37,2013-05-06 10:22:00,
2013-05-06 05:27:00,52.3,45.3,29.95,North,5,10.4,10.4,77,0.00,BKN,,0.00,0.0,WeatherDisplay:10.37,2013-05-06 10:27:00,
2013-05-06 05:32:00,52.6,45.6,29.95,NNE,13,9.2,9.2,77,0.00,OVC,,0.00,0.0,WeatherDisplay:10.37,2013-05-06 10:32:00,
2013-05-06 05:37:00,52.8,45.4,29.96,NNE,18,11.5,11.5,76,0.00,OVC,,0.00,0.0,WeatherDisplay:10.37,2013-05-06 10:37:00,
2013-05-06 05:42:00,53.0,45.3,29.96,NNE,22,11.5,11.5,75,0.00,OVC,,0.00,0.0,WeatherDisplay:10.37,2013-05-06 10:42:00,
2013-05-06 05:47:00,53.1,45.4,29.96,NNE,26,9.2,9.2,75,0.00,OVC,,0.00,0.0,WeatherDisplay:10.37,2013-05-06 10:47:00,
2013-05-06 05:52:00,53.1,45.4,29.97,NNE,28,10.4,10.4,75,0.00,OVC,,0.00,0.0,WeatherDisplay:10.37,2013-05-06 10:52:00,
2013-05-06 05:57:00,53.0,45.6,29.97,NE,43,6.9,6.9,76,0.00,OVC,,0.00,0.0,WeatherDisplay:10.37,2013-05-06 10:57:00,
2013-05-06 06:02:00,52.8,45.4,29.98,NE,36,5.8,5.8,76,0.00,OVC,,0.00,7.0,WeatherDisplay:10.37,2013-05-06 11:02:00,
2013-05-06 06:07:00,52.8,45.4,29.98,NNE,30,6.9,6.9,76,0.00,OVC,,0.00,16.0,WeatherDisplay:10.37,2013-05-06 11:07:00,
2013-05-06 06:12:00,52.6,45.6,29.98,NNE,22,5.8,5.8,77,0.00,OVC,,0.00,26.0,WeatherDisplay:10.37,2013-05-06 11:12:00,
2013-05-06 06:17:00,52.7,45.7,29.98,NNE,33,8.1,8.1,77,0.00,OVC,,0.00,35.0,WeatherDisplay:10.37,2013-05-06 11:17:00,
2013-05-06 06:22:00,52.9,45.5,29.98,NNE,30,8.1,8.1,76,0.00,OVC,,0.00,39.0,WeatherDisplay:10.37,2013-05-06 11:22:00,
2013-05-06 06:27:00,53.2,45.8,29.98,NE,35,8.1,8.1,76,0.00,OVC,,0.00,44.0,WeatherDisplay:10.37,2013-05-06 11:27:00,
2013-05-06 06:32:00,53.3,45.6,29.98,NNE,22,11.5,11.5,75,0.00,BKN,,0.00,53.0,WeatherDisplay:10.37,2013-05-06 11:32:00,
2013-05-06 06:37:00,53.5,45.8,29.98,NNE,17,10.4,10.4,75,0.00,BKN,,0.00,63.0,WeatherDisplay:10.37,2013-05-06 11:37:00,
2013-05-06 06:42:00,53.6,45.5,29.98,NNE,19,10.4,10.4,74,0.00,BKN,,0.00,72.0,WeatherDisplay:10.37,2013-05-06 11:42:00,
2013-05-06 06:47:00,53.7,45.6,29.98,North,5,9.2,9.2,74,0.00,SCT,,0.00,79.0,WeatherDisplay:10.37,2013-05-06 11:47:00,
2013-05-06 06:52:00,53.9,45.8,29.98,NNE,22,11.5,11.5,74,0.00,SCT,,0.00,84.0,WeatherDisplay:10.37,2013-05-06 11:52:00,
2013-05-06 06:57:00,54.0,45.2,29.98,NNE,27,9.2,9.2,72,0.00,SCT,,0.00,93.0,WeatherDisplay:10.37,2013-05-06 11:57:00,
2013-05-06 07:02:00,54.2,45.7,29.99,NE,43,8.1,8.1,73,0.00,CLR,,0.00,102.0,WeatherDisplay:10.37,2013-05-06 12:02:00,
2013-05-06 07:07:00,54.5,45.7,29.99,NE,51,9.2,9.2,72,0.00,CLR,,0.00,125.0,WeatherDisplay:10.37,2013-05-06 12:07:00,
2013-05-06 07:12:00,54.8,45.6,29.99,NE,44,9.0,9.0,71,0.00,CLR,,0.00,128.0,WeatherDisplay:10.37,2013-05-06 12:12:00,
2013-05-06 07:17:00,55.0,45.8,29.99,NE,37,8.1,8.1,71,0.00,CLR,,0.00,132.0,WeatherDisplay:10.37,2013-05-06 12:17:00,
2013-05-06 07:22:00,55.3,45.3,29.99,NE,45,9.2,9.2,69,0.00,CLR,,0.00,137.0,WeatherDisplay:10.37,2013-05-06 12:22:00,
2013-05-06 07:27:00,55.8,46.2,29.99,NE,35,9.2,9.2,70,0.00,CLR,,0.00,149.0,WeatherDisplay:10.37,2013-05-06 12:27:00,
2013-05-06 07:32:00,56.3,45.9,29.99,NE,34,9.2,9.2,68,0.00,BKN,,0.00,146.0,WeatherDisplay:10.37,2013-05-06 12:32:00,
2013-05-06 07:38:00,56.5,45.3,29.99,NNE,32,10.4,10.4,66,0.00,BKN,,0.00,127.0,WeatherDisplay:10.37,2013-05-06 12:38:00,
2013-05-06 07:43:00,56.4,45.2,29.99,NNE,32,11.5,11.5,66,0.00,BKN,,0.00,127.0,WeatherDisplay:10.37,2013-05-06 12:43:00,
2013-05-06 07:48:00,56.5,46.1,29.99,NNE,27,9.0,9.0,68,0.00,OVC,,0.00,174.0,WeatherDisplay:10.37,2013-05-06 12:48:00,
2013-05-06 07:53:00,56.7,45.5,29.99,NNE,24,11.5,11.5,66,0.00,OVC,,0.00,183.0,WeatherDisplay:10.37,2013-05-06 12:53:00,
2013-05-06 07:57:00,57.1,45.8,29.99,NE,48,10.4,10.4,66,0.00,OVC,,0.00,216.0,WeatherDisplay:10.37,2013-05-06 12:57:00,
2013-05-06 08:03:00,57.9,46.2,30.00,ENE,64,11.5,11.5,65,0.00,OVC,,0.00,239.0,WeatherDisplay:10.37,2013-05-06 13:03:00,
2013-05-06 08:08:00,58.2,45.7,29.99,NE,38,11.5,11.5,63,0.00,OVC,,0.00,174.0,WeatherDisplay:10.37,2013-05-06 13:08:00,
2013-05-06 08:12:00,58.4,46.3,30.00,NNE,26,9.2,9.2,64,0.00,OVC,,0.00,178.0,WeatherDisplay:10.37,2013-05-06 13:12:00,
2013-05-06 08:17:00,58.7,46.1,30.00,NE,41,10.4,10.4,63,0.00,OVC,,0.00,199.0,WeatherDisplay:10.37,2013-05-06 13:17:00,
2013-05-06 08:22:00,59.2,46.6,30.00,NNE,31,9.2,9.2,63,0.00,OVC,,0.00,295.0,WeatherDisplay:10.37,2013-05-06 13:22:00,
2013-05-06 08:27:00,60.0,46.9,30.00,NNE,29,10.4,10.4,62,0.00,OVC,,0.00,290.0,WeatherDisplay:10.37,2013-05-06 13:27:00,
2013-05-06 08:33:00,60.9,47.4,30.00,NNE,31,10.4,10.4,61,0.00,OVC,,0.00,308.0,WeatherDisplay:10.37,2013-05-06 13:33:00,
2013-05-06 08:38:00,61.6,47.6,30.00,NE,34,11.5,11.5,60,0.00,OVC,,0.00,295.0,WeatherDisplay:10.37,2013-05-06 13:38:00,
2013-05-06 08:43:00,62.0,47.0,30.00,NNE,19,11.5,11.5,58,0.00,OVC,,0.00,475.0,WeatherDisplay:10.37,2013-05-06 13:43:00,
2013-05-06 08:48:00,62.6,47.1,30.00,NE,42,11.5,11.5,57,0.00,OVC,,0.00,570.0,WeatherDisplay:10.37,2013-05-06 13:48:00,
2013-05-06 08:53:00,63.2,46.8,30.00,NE,48,11.5,11.5,55,0.00,OVC,,0.00,443.0,WeatherDisplay:10.37,2013-05-06 13:53:00,
2013-05-06 08:58:00,63.4,46.5,30.00,NE,41,11.5,11.5,54,0.00,OVC,,0.00,304.0,WeatherDisplay:10.37,2013-05-06 13:58:00,
2013-05-06 09:03:00,63.4,46.5,30.00,NE,37,10.4,10.4,54,0.00,OVC,,0.00,420.0,WeatherDisplay:10.37,2013-05-06 14:03:00,
2013-05-06 09:08:00,63.7,46.2,30.00,ENE,59,11.5,11.5,53,0.00,OVC,,0.00,482.0,WeatherDisplay:10.37,2013-05-06 14:08:00,
2013-05-06 09:13:00,64.1,46.1,30.00,ENE,65,11.5,11.5,52,0.00,OVC,,0.00,504.0,WeatherDisplay:10.37,2013-05-06 14:13:00,
2013-05-06 09:18:00,64.7,46.7,30.00,ENE,68,10.4,10.4,52,0.00,OVC,,0.00,496.0,WeatherDisplay:10.37,2013-05-06 14:18:00,
2013-05-06 09:23:00,65.0,46.9,30.00,ENE,77,10.4,10.4,52,0.00,OVC,,0.00,531.0,WeatherDisplay:10.37,2013-05-06 14:23:00,
2013-05-06 09:28:00,64.8,46.8,30.00,NE,40,10.4,10.4,52,0.00,OVC,,0.00,519.0,WeatherDisplay:10.37,2013-05-06 14:28:00,
2013-05-06 09:33:00,64.8,45.7,30.00,ENE,63,9.2,9.2,50,0.00,BKN,,0.00,334.0,WeatherDisplay:10.37,2013-05-06 14:33:00,
2013-05-06 09:38:00,64.9,46.8,30.00,NNE,30,8.1,8.1,52,0.00,BKN,,0.00,350.0,WeatherDisplay:10.37,2013-05-06 14:38:00,
2013-05-06 09:43:00,65.2,47.1,30.00,ENE,58,11.0,11.0,52,0.00,BKN,,0.00,504.0,WeatherDisplay:10.37,2013-05-06 14:43:00,
2013-05-06 09:48:00,65.4,47.8,30.00,NE,55,9.0,9.0,53,0.00,OVC,,0.00,524.0,WeatherDisplay:10.37,2013-05-06 14:48:00,
2013-05-06 09:53:00,65.7,46.0,30.00,ENE,67,8.1,8.1,49,0.00,OVC,,0.00,512.0,WeatherDisplay:10.37,2013-05-06 14:53:00,
2013-05-06 09:58:00,65.8,47.7,30.00,NE,41,8.1,8.1,52,0.00,OVC,,0.00,417.0,WeatherDisplay:10.37,2013-05-06 14:58:00,
2013-05-06 10:03:00,65.9,47.3,30.00,ENE,61,8.1,8.1,51,0.00,OVC,,0.00,455.0,WeatherDisplay:10.37,2013-05-06 15:03:00,
2013-05-06 10:08:00,66.4,47.7,30.00,ENE,67,5.8,5.8,51,0.00,OVC,,0.00,615.0,WeatherDisplay:10.37,2013-05-06 15:08:00,
2013-05-06 10:13:00,66.7,46.9,30.00,ENE,66,6.9,6.9,49,0.00,OVC,,0.00,522.0,WeatherDisplay:10.37,2013-05-06 15:13:00,
2013-05-06 10:18:00,66.9,47.6,30.00,NNE,30,8.1,8.1,50,0.00,OVC,,0.00,445.0,WeatherDisplay:10.37,2013-05-06 15:18:00,
2013-05-06 10:23:00,67.3,48.0,30.00,NE,39,9.2,9.2,50,0.00,OVC,,0.00,483.0,WeatherDisplay:10.37,2013-05-06 15:23:00,
2013-05-06 10:28:00,67.8,49.0,29.99,NE,35,8.1,8.1,51,0.00,OVC,,0.00,729.0,WeatherDisplay:10.37,2013-05-06 15:28:00,
2013-05-06 10:33:00,68.1,48.2,29.99,NNE,13,10.0,10.0,49,0.00,OVC,,0.00,473.0,WeatherDisplay:10.37,2013-05-06 15:33:00,
2013-05-06 10:38:00,68.2,48.3,29.99,NNE,24,10.4,10.4,49,0.00,OVC,,0.00,524.0,WeatherDisplay:10.37,2013-05-06 15:38:00,
2013-05-06 10:43:00,68.5,48.6,29.99,ENE,60,9.2,9.2,49,0.00,OVC,,0.00,452.0,WeatherDisplay:10.37,2013-05-06 15:43:00,
2013-05-06 10:48:00,68.8,47.7,29.99,NNE,16,10.4,10.4,47,0.00,OVC,,0.00,441.0,WeatherDisplay:10.37,2013-05-06 15:48:00,
2013-05-06 10:53:00,68.8,47.7,29.99,NE,34,9.0,9.0,47,0.00,OVC,,0.00,446.0,WeatherDisplay:10.37,2013-05-06 15:53:00,
2013-05-06 10:58:00,69.1,48.0,29.99,NE,55,11.5,11.5,47,0.00,OVC,,0.00,550.0,WeatherDisplay:10.37,2013-05-06 15:58:00,
2013-05-06 11:03:00,69.5,48.4,29.99,ENE,75,9.2,9.2,47,0.00,OVC,,0.00,663.0,WeatherDisplay:10.37,2013-05-06 16:03:00,
2013-05-06 11:08:00,70.1,48.4,29.99,NNE,18,11.0,11.0,46,0.00,OVC,,0.00,519.0,WeatherDisplay:10.37,2013-05-06 16:08:00,
2013-05-06 11:13:00,70.3,48.5,29.99,NE,55,11.5,11.5,46,0.00,OVC,,0.00,496.0,WeatherDisplay:10.37,2013-05-06 16:13:00,
2013-05-06 11:18:00,70.3,47.3,29.99,NNE,28,11.5,11.5,44,0.00,OVC,,0.00,571.0,WeatherDisplay:10.37,2013-05-06 16:18:00,
2013-05-06 11:23:00,70.7,50.0,29.98,NE,51,6.9,6.9,48,0.00,OVC,,0.00,744.0,WeatherDisplay:10.37,2013-05-06 16:23:00,
2013-05-06 11:28:00,71.2,49.9,29.98,NNE,24,12.7,12.7,47,0.00,OVC,,0.00,522.0,WeatherDisplay:10.37,2013-05-06 16:28:00,
2013-05-06 11:33:00,71.3,49.4,29.98,NE,34,10.4,10.4,46,0.00,BKN,,0.00,793.0,WeatherDisplay:10.37,2013-05-06 16:33:00,
2013-05-06 11:38:00,72.0,50.1,29.98,ENE,69,11.5,11.5,46,0.00,BKN,,0.00,895.0,WeatherDisplay:10.37,2013-05-06 16:38:00,
2013-05-06 11:43:00,72.9,50.3,29.97,NNE,22,10.4,10.4,45,0.00,BKN,,0.00,902.0,WeatherDisplay:10.37,2013-05-06 16:43:00,
2013-05-06 11:48:00,73.3,50.1,29.97,NNE,31,9.2,9.2,44,0.00,BKN,,0.00,921.0,WeatherDisplay:10.37,2013-05-06 16:48:00,
2013-05-06 11:53:00,73.3,50.1,29.97,NE,49,11.5,11.5,44,0.00,BKN,,0.00,930.0,WeatherDisplay:10.37,2013-05-06 16:53:00,
2013-05-06 11:58:00,73.3,49.4,29.97,NE,46,17.3,17.3,43,0.00,BKN,,0.00,682.0,WeatherDisplay:10.37,2013-05-06 16:58:00,
2013-05-06 12:03:00,73.3,48.8,29.97,NNE,20,12.7,12.7,42,0.00,BKN,,0.00,698.0,WeatherDisplay:10.37,2013-05-06 17:03:00,
2013-05-06 12:08:00,73.1,49.9,29.97,ENE,63,16.1,16.1,44,0.00,BKN,,0.00,823.0,WeatherDisplay:10.37,2013-05-06 17:08:00,
2013-05-06 12:13:00,72.7,49.5,29.97,NE,35,12.7,12.7,44,0.00,BKN,,0.00,714.0,WeatherDisplay:10.37,2013-05-06 17:13:00,
2013-05-06 12:18:00,72.8,50.2,29.96,NE,43,11.5,11.5,45,0.00,BKN,,0.00,817.0,WeatherDisplay:10.37,2013-05-06 17:18:00,
2013-05-06 12:23:00,73.0,48.5,29.96,NE,38,12.7,12.7,42,0.00,BKN,,0.00,756.0,WeatherDisplay:10.37,2013-05-06 17:23:00,
2013-05-06 12:28:00,73.3,49.4,29.96,NNE,17,13.8,13.8,43,0.00,BKN,,0.00,1104.0,WeatherDisplay:10.37,2013-05-06 17:28:00,
2013-05-06 12:33:00,74.0,50.1,29.96,NE,40,15.0,15.0,43,0.00,BKN,,0.00,984.0,WeatherDisplay:10.37,2013-05-06 17:33:00,
2013-05-06 12:38:00,74.6,50.6,29.96,NNE,13,12.7,12.7,43,0.00,BKN,,0.00,947.0,WeatherDisplay:10.37,2013-05-06 17:38:00,
2013-05-06 12:43:00,74.6,50.0,29.96,ENE,59,12.7,12.7,42,0.00,BKN,,0.00,944.0,WeatherDisplay:10.37,2013-05-06 17:43:00,
2013-05-06 12:48:00,74.8,50.2,29.96,NNE,21,13.8,13.8,42,0.00,SCT,,0.00,939.0,WeatherDisplay:10.37,2013-05-06 17:48:00,
2013-05-06 12:53:00,74.5,50.5,29.96,North,5,14.0,14.0,43,0.00,SCT,,0.00,946.0,WeatherDisplay:10.37,2013-05-06 17:53:00,
2013-05-06 12:58:00,74.4,49.2,29.96,NE,35,15.0,15.0,41,0.00,SCT,,0.00,956.0,WeatherDisplay:10.37,2013-05-06 17:58:00,
2013-05-06 13:03:00,74.6,49.3,29.96,NE,35,17.3,17.3,41,0.00,CLR,,0.00,944.0,WeatherDisplay:10.37,2013-05-06 18:03:00,
2013-05-06 13:08:00,74.4,49.2,29.95,NNE,30,16.1,16.1,41,0.00,CLR,,0.00,926.0,WeatherDisplay:10.37,2013-05-06 18:08:00,
2013-05-06 13:13:00,74.7,50.1,29.95,ENE,57,16.1,16.1,42,0.00,CLR,,0.00,933.0,WeatherDisplay:10.37,2013-05-06 18:13:00,
2013-05-06 13:18:00,74.9,49.6,29.95,NE,38,16.1,16.1,41,0.00,CLR,,0.00,868.0,WeatherDisplay:10.37,2013-05-06 18:18:00,
2013-05-06 13:23:00,74.9,48.9,29.95,NE,45,13.0,13.0,40,0.00,CLR,,0.00,819.0,WeatherDisplay:10.37,2013-05-06 18:23:00,
2013-05-06 13:28:00,74.7,48.8,29.95,NE,51,17.3,17.3,40,0.00,CLR,,0.00,874.0,WeatherDisplay:10.37,2013-05-06 18:28:00,
2013-05-06 13:33:00,74.8,48.9,29.95,ENE,62,12.7,12.7,40,0.00,CLR,,0.00,851.0,WeatherDisplay:10.37,2013-05-06 18:33:00,
2013-05-06 13:38:00,75.1,49.1,29.95,NE,36,13.8,13.8,40,0.00,CLR,,0.00,895.0,WeatherDisplay:10.37,2013-05-06 18:38:00,
2013-05-06 13:43:00,75.4,49.4,29.95,NE,51,16.1,16.1,40,0.00,CLR,,0.00,849.0,WeatherDisplay:10.37,2013-05-06 18:43:00,
2013-05-06 13:48:00,75.0,49.7,29.95,NNE,32,14.0,14.0,41,0.00,SCT,,0.00,918.0,WeatherDisplay:10.37,2013-05-06 18:48:00,
2013-05-06 13:53:00,75.3,47.9,29.95,NNE,26,18.4,18.4,38,0.00,SCT,,0.00,861.0,WeatherDisplay:10.37,2013-05-06 18:53:00,
2013-05-06 13:58:00,75.8,51.1,29.95,NE,43,15.0,15.0,42,0.00,SCT,,0.00,868.0,WeatherDisplay:10.37,2013-05-06 18:58:00,
2013-05-06 14:03:00,75.7,49.7,29.95,NE,42,15.0,15.0,40,0.00,SCT,,0.00,758.0,WeatherDisplay:10.37,2013-05-06 19:03:00,
2013-05-06 14:08:00,75.2,48.5,29.95,NNE,19,19.6,19.6,39,0.00,SCT,,0.00,833.0,WeatherDisplay:10.37,2013-05-06 19:08:00,
2013-05-06 14:13:00,75.3,48.6,29.95,NNE,30,13.8,13.8,39,0.00,SCT,,0.00,838.0,WeatherDisplay:10.37,2013-05-06 19:13:00,
2013-05-06 14:18:00,75.2,47.1,29.95,NE,56,19.6,19.6,37,0.00,SCT,,0.00,740.0,WeatherDisplay:10.37,2013-05-06 19:18:00,
2013-05-06 14:23:00,74.7,47.4,29.95,NE,49,17.3,17.3,38,0.00,SCT,,0.00,596.0,WeatherDisplay:10.37,2013-05-06 19:23:00,
2013-05-06 14:28:00,74.2,48.3,29.95,NE,36,19.6,19.6,40,0.00,SCT,,0.00,671.0,WeatherDisplay:10.37,2013-05-06 19:28:00,
2013-05-06 14:33:00,74.4,47.8,29.95,NE,55,17.3,17.3,39,0.00,BKN,,0.00,895.0,WeatherDisplay:10.37,2013-05-06 19:33:00,
2013-05-06 14:39:00,74.8,47.5,29.95,NE,51,18.4,18.4,38,0.00,BKN,,0.00,726.0,WeatherDisplay:10.37,2013-05-06 19:39:00,
2013-05-06 14:44:00,74.7,49.4,29.95,NNE,32,17.3,17.3,41,0.00,BKN,,0.00,777.0,WeatherDisplay:10.37,2013-05-06 19:44:00,
2013-05-06 14:49:00,74.5,47.2,29.95,ENE,57,16.1,16.1,38,0.00,BKN,,0.00,515.0,WeatherDisplay:10.37,2013-05-06 19:49:00,
2013-05-06 14:54:00,74.0,48.8,29.95,NNE,30,13.8,13.8,41,0.00,BKN,,0.00,601.0,WeatherDisplay:10.37,2013-05-06 19:54:00,
2013-05-06 14:59:00,74.4,48.5,29.95,NE,41,18.4,18.4,40,0.00,BKN,,0.00,677.0,WeatherDisplay:10.37,2013-05-06 19:59:00,
2013-05-06 15:04:00,74.4,49.2,29.95,NE,50,17.3,17.3,41,0.00,SCT,,0.00,466.0,WeatherDisplay:10.37,2013-05-06 20:04:00,
2013-05-06 15:09:00,73.9,49.4,29.94,NNE,32,11.5,11.5,42,0.00,SCT,,0.00,388.0,WeatherDisplay:10.37,2013-05-06 20:09:00,
2013-05-06 15:14:00,73.5,48.4,29.94,NNE,17,16.1,16.1,41,0.00,SCT,,0.00,401.0,WeatherDisplay:10.37,2013-05-06 20:14:00,
2013-05-06 15:19:00,73.1,48.0,29.94,NE,43,15.0,15.0,41,0.00,SCT,,0.00,338.0,WeatherDisplay:10.37,2013-05-06 20:19:00,
2013-05-06 15:24:00,72.9,48.5,29.94,NNE,19,11.5,11.5,42,0.00,SCT,,0.00,432.0,WeatherDisplay:10.37,2013-05-06 20:24:00,
2013-05-06 15:29:00,72.9,48.5,29.93,NE,39,12.7,12.7,42,0.00,SCT,,0.00,438.0,WeatherDisplay:10.37,2013-05-06 20:29:00,
2013-05-06 15:34:00,74.2,50.9,29.93,NNE,31,13.8,13.8,44,0.00,BKN,,0.00,849.0,WeatherDisplay:10.37,2013-05-06 20:34:00,
2013-05-06 15:39:00,74.9,49.6,29.93,NE,34,15.0,15.0,41,0.00,BKN,,0.00,763.0,WeatherDisplay:10.37,2013-05-06 20:39:00,
2013-05-06 15:44:00,74.7,50.1,29.93,NNE,26,13.8,13.8,42,0.00,BKN,,0.00,401.0,WeatherDisplay:10.37,2013-05-06 20:44:00,
2013-05-06 15:49:00,74.9,48.3,29.93,NNE,28,17.3,17.3,39,0.00,BKN,,0.00,677.0,WeatherDisplay:10.37,2013-05-06 20:49:00,
2013-05-06 15:54:00,74.7,48.8,29.93,NNE,21,16.1,16.1,40,0.00,BKN,,0.00,364.0,WeatherDisplay:10.37,2013-05-06 20:54:00,
2013-05-06 15:59:00,73.7,47.2,29.93,NNE,32,15.0,15.0,39,0.00,BKN,,0.00,304.0,WeatherDisplay:10.37,2013-05-06 20:59:00,
2013-05-06 16:04:00,73.3,46.8,29.93,NNE,32,15.0,15.0,39,0.00,OVC,,0.00,271.0,WeatherDisplay:10.37,2013-05-06 21:04:00,
2013-05-06 16:09:00,73.1,47.3,29.93,NNE,24,15.0,15.0,40,0.00,OVC,,0.00,515.0,WeatherDisplay:10.37,2013-05-06 21:09:00,
2013-05-06 16:14:00,73.6,49.1,29.93,ENE,62,13.0,13.0,42,0.00,OVC,,0.00,631.0,WeatherDisplay:10.37,2013-05-06 21:14:00,
2013-05-06 16:19:00,74.2,47.0,29.93,NNE,19,17.0,17.0,38,0.00,OVC,,0.00,675.0,WeatherDisplay:10.37,2013-05-06 21:19:00,
2013-05-06 16:24:00,74.1,47.6,29.93,NNE,26,13.8,13.8,39,0.00,OVC,,0.00,373.0,WeatherDisplay:10.37,2013-05-06 21:24:00,
2013-05-06 16:29:00,74.1,48.2,29.93,NE,46,17.3,17.3,40,0.00,OVC,,0.00,649.0,WeatherDisplay:10.37,2013-05-06 21:29:00,
2013-05-06 16:34:00,73.9,50.0,29.93,NE,34,13.8,13.8,43,0.00,SCT,,0.00,341.0,WeatherDisplay:10.37,2013-05-06 21:34:00,
2013-05-06 16:39:00,73.9,50.0,29.93,NNE,30,13.8,13.8,43,0.00,SCT,,0.00,513.0,WeatherDisplay:10.37,2013-05-06 21:39:00,
2013-05-06 16:44:00,73.5,47.7,29.93,NNE,19,19.6,19.6,40,0.00,SCT,,0.00,373.0,WeatherDisplay:10.37,2013-05-06 21:44:00,
2013-05-06 16:49:00,73.0,47.9,29.93,NNE,31,15.0,15.0,41,0.00,BKN,,0.00,339.0,WeatherDisplay:10.37,2013-05-06 21:49:00,
2013-05-06 16:54:00,73.0,49.2,29.93,NE,40,13.8,13.8,43,0.00,BKN,,0.00,529.0,WeatherDisplay:10.37,2013-05-06 21:54:00,
2013-05-06 16:59:00,73.0,47.2,29.93,NNE,33,15.0,15.0,40,0.00,BKN,,0.00,325.0,WeatherDisplay:10.37,2013-05-06 21:59:00,
2013-05-06 17:04:00,72.3,46.6,29.93,NNE,30,14.0,14.0,40,0.00,OVC,,0.00,299.0,WeatherDisplay:10.37,2013-05-06 22:04:00,
2013-05-06 17:09:00,71.5,46.6,29.93,NE,48,13.8,13.8,41,0.00,OVC,,0.00,197.0,WeatherDisplay:10.37,2013-05-06 22:09:00,
2013-05-06 17:14:00,71.4,47.7,29.93,NNE,33,13.0,13.0,43,0.00,OVC,,0.00,510.0,WeatherDisplay:10.37,2013-05-06 22:14:00,
2013-05-06 17:19:00,72.2,46.5,29.93,NNE,26,16.1,16.1,40,0.00,OVC,,0.00,410.0,WeatherDisplay:10.37,2013-05-06 22:19:00,
2013-05-06 17:24:00,72.3,47.3,29.93,NE,52,16.1,16.1,41,0.00,OVC,,0.00,299.0,WeatherDisplay:10.37,2013-05-06 22:24:00,
2013-05-06 17:29:00,71.9,46.3,29.94,NNE,31,13.8,13.8,40,0.00,OVC,,0.00,315.0,WeatherDisplay:10.37,2013-05-06 22:29:00,
2013-05-06 17:34:00,72.0,46.3,29.94,NNE,32,13.8,13.8,40,0.00,OVC,,0.00,350.0,WeatherDisplay:10.37,2013-05-06 22:34:00,
2013-05-06 17:39:00,71.6,46.0,29.94,NE,35,13.8,13.8,40,0.00,OVC,,0.00,186.0,WeatherDisplay:10.37,2013-05-06 22:39:00,
2013-05-06 17:44:00,70.8,45.3,29.94,NNE,25,15.0,15.0,40,0.00,OVC,,0.00,160.0,WeatherDisplay:10.37,2013-05-06 22:44:00,
2013-05-06 17:49:00,70.1,44.6,29.94,NNE,26,15.0,15.0,40,0.00,OVC,,0.00,144.0,WeatherDisplay:10.37,2013-05-06 22:49:00,
2013-05-06 17:54:00,69.3,43.3,29.94,NNE,30,16.1,16.1,39,0.00,OVC,,0.00,135.0,WeatherDisplay:10.37,2013-05-06 22:54:00,
2013-05-06 17:59:00,68.6,42.0,29.94,NNE,17,16.1,16.1,38,0.00,OVC,,0.00,121.0,WeatherDisplay:10.37,2013-05-06 22:59:00,
2013-05-06 18:04:00,67.9,42.7,29.94,NNE,33,17.3,17.3,40,0.00,OVC,,0.00,113.0,WeatherDisplay:10.37,2013-05-06 23:04:00,
2013-05-06 18:09:00,67.5,41.0,29.94,NNE,25,14.0,14.0,38,0.00,OVC,,0.00,116.0,WeatherDisplay:10.37,2013-05-06 23:09:00,
2013-05-06 18:14:00,67.1,41.3,29.94,NNE,24,12.7,12.7,39,0.00,OVC,,0.00,111.0,WeatherDisplay:10.37,2013-05-06 23:14:00,
2013-05-06 18:19:00,66.8,42.3,29.94,NNE,22,15.0,15.0,41,0.00,OVC,,0.00,107.0,WeatherDisplay:10.37,2013-05-06 23:19:00,
2013-05-06 18:24:00,66.5,41.4,29.94,NE,38,13.8,13.8,40,0.00,OVC,,0.00,104.0,WeatherDisplay:10.37,2013-05-06 23:24:00,
2013-05-06 18:29:00,66.3,41.9,29.95,NNE,32,16.0,16.0,41,0.00,OVC,,0.00,88.0,WeatherDisplay:10.37,2013-05-06 23:29:00,
2013-05-06 18:34:00,65.9,41.5,29.95,NE,34,13.8,13.8,41,0.00,OVC,,0.00,69.0,WeatherDisplay:10.37,2013-05-06 23:34:00,
2013-05-06 18:39:00,65.3,39.7,29.95,NNE,27,13.0,13.0,39,0.00,OVC,,0.00,51.0,WeatherDisplay:10.37,2013-05-06 23:39:00,
2013-05-06 18:44:00,64.8,39.9,29.95,NNE,28,13.8,13.8,40,0.00,OVC,,0.00,42.0,WeatherDisplay:10.37,2013-05-06 23:44:00,
2013-05-06 18:49:00,64.3,40.1,29.96,NE,48,13.0,13.0,41,0.00,OVC,,0.00,37.0,WeatherDisplay:10.37,2013-05-06 23:49:00,
2013-05-06 18:54:00,64.0,40.4,29.96,North,5,13.8,13.8,42,0.00,OVC,,0.00,25.0,WeatherDisplay:10.37,2013-05-06 23:54:00,
2013-05-06 18:59:00,63.6,40.7,29.96,NE,38,11.5,11.5,43,0.00,OVC,,0.00,18.0,WeatherDisplay:10.37,2013-05-06 23:59:00,
2013-05-06 19:04:00,63.2,40.9,29.96,NNE,18,13.0,13.0,44,0.00,OVC,,0.00,12.0,WeatherDisplay:10.37,2013-05-07 00:04:00,
2013-05-06 19:09:00,63.0,41.9,29.96,NNE,29,9.2,9.2,46,0.00,OVC,,0.00,9.0,WeatherDisplay:10.37,2013-05-07 00:09:00,
2013-05-06 19:14:00,62.6,42.6,29.96,NE,37,8.1,8.1,48,0.00,OVC,,0.00,7.0,WeatherDisplay:10.37,2013-05-07 00:14:00,
2013-05-06 19:19:00,62.3,42.3,29.96,NE,40,8.1,8.1,48,0.00,OVC,,0.00,5.0,WeatherDisplay:10.37,2013-05-07 00:19:00,
2013-05-06 19:24:00,62.1,41.6,29.97,NE,53,11.5,11.5,47,0.00,OVC,,0.00,5.0,WeatherDisplay:10.37,2013-05-07 00:24:00,
2013-05-06 19:29:00,61.7,40.7,29.97,NE,40,9.2,9.2,46,0.00,OVC,,0.00,5.0,WeatherDisplay:10.37,2013-05-07 00:29:00,
2013-05-06 19:34:00,61.2,40.2,29.97,ENE,57,11.5,11.5,46,0.00,OVC,,0.00,5.0,WeatherDisplay:10.37,2013-05-07 00:34:00,
2013-05-06 19:39:00,60.9,41.1,29.98,ENE,66,10.0,10.0,48,0.00,OVC,,0.00,0.0,WeatherDisplay:10.37,2013-05-07 00:39:00,
2013-05-06 19:44:00,60.7,41.4,29.98,ENE,61,10.4,10.4,49,0.00,OVC,,0.00,0.0,WeatherDisplay:10.37,2013-05-07 00:44:00,
2013-05-06 19:49:00,60.4,42.2,29.98,NE,38,6.0,6.0,51,0.00,OVC,,0.00,0.0,WeatherDisplay:10.37,2013-05-07 00:49:00,
2013-05-06 19:54:00,59.9,41.7,29.98,NE,36,9.0,9.0,51,0.00,OVC,,0.00,0.0,WeatherDisplay:10.37,2013-05-07 00:54:00,
2013-05-06 19:59:00,59.7,42.0,29.98,NE,48,8.1,8.1,52,0.00,OVC,,0.00,0.0,WeatherDisplay:10.37,2013-05-07 00:59:00,
2013-05-06 20:04:00,59.4,42.3,29.98,ENE,65,5.8,5.8,53,0.00,OVC,,0.00,0.0,WeatherDisplay:10.37,2013-05-07 01:04:00,
2013-05-06 20:09:00,59.3,42.6,29.98,ENE,60,4.6,4.6,54,0.00,OVC,,0.00,0.0,WeatherDisplay:10.37,2013-05-07 01:09:00,
2013-05-06 20:14:00,59.0,42.4,29.99,NE,54,10.4,10.4,54,0.00,OVC,,0.00,0.0,WeatherDisplay:10.37,2013-05-07 01:14:00,
2013-05-06 20:19:00,58.7,42.1,29.99,ENE,60,7.0,7.8,54,0.00,OVC,,0.00,0.0,WeatherDisplay:10.37,2013-05-07 01:19:00,
2013-05-06 20:25:00,58.3,41.7,29.99,NE,46,10.0,10.0,54,0.00,OVC,,0.00,0.0,WeatherDisplay:10.37,2013-05-07 01:25:00,
2013-05-06 20:30:00,57.9,41.8,29.99,ENE,57,10.4,10.4,55,0.00,OVC,,0.00,0.0,WeatherDisplay:10.37,2013-05-07 01:30:00,
2013-05-06 20:35:00,57.5,41.4,29.99,NE,51,6.9,6.9,55,0.00,OVC,,0.00,0.0,WeatherDisplay:10.37,2013-05-07 01:35:00,
2013-05-06 20:40:00,57.2,41.2,29.99,NNE,24,10.4,10.4,55,0.00,OVC,,0.00,0.0,WeatherDisplay:10.37,2013-05-07 01:40:00,
2013-05-06 20:45:00,56.8,41.3,30.00,ENE,59,12.0,12.0,56,0.00,OVC,,0.00,0.0,WeatherDisplay:10.37,2013-05-07 01:45:00,
2013-05-06 20:50:00,56.3,40.8,30.00,NNE,21,8.0,8.0,56,0.00,OVC,,0.00,0.0,WeatherDisplay:10.37,2013-05-07 01:50:00,
2013-05-06 20:55:00,55.8,40.3,30.00,NE,49,11.5,11.5,56,0.00,OVC,,0.00,0.0,WeatherDisplay:10.37,2013-05-07 01:55:00,
2013-05-06 21:00:00,55.4,40.0,30.01,ENE,72,11.5,11.5,56,0.00,OVC,,0.00,0.0,WeatherDisplay:10.37,2013-05-07 02:00:00,
2013-05-06 21:05:00,55.1,40.6,30.01,ENE,57,9.2,9.2,58,0.00,OVC,,0.00,0.0,WeatherDisplay:10.37,2013-05-07 02:05:00,
2013-05-06 21:10:00,54.8,40.7,30.01,ENE,78,6.9,6.9,59,0.00,OVC,,0.00,0.0,WeatherDisplay:10.37,2013-05-07 02:10:00,
2013-05-06 21:15:00,54.5,40.9,30.01,ENE,59,6.9,6.9,60,0.00,OVC,,0.00,0.0,WeatherDisplay:10.37,2013-05-07 02:15:00,
2013-05-06 21:20:00,54.2,41.5,30.01,NE,52,4.6,4.6,62,0.00,OVC,,0.00,0.0,WeatherDisplay:10.37,2013-05-07 02:20:00,
2013-05-06 21:25:00,53.9,41.6,30.01,NE,43,4.6,4.6,63,0.00,OVC,,0.00,0.0,WeatherDisplay:10.37,2013-05-07 02:25:00,
2013-05-06 21:30:00,53.6,41.7,30.01,NE,53,2.3,2.3,64,0.00,OVC,,0.00,0.0,WeatherDisplay:10.37,2013-05-07 02:30:00,
2013-05-06 21:35:00,53.4,42.3,30.01,NE,53,1.0,1.1,66,0.00,OVC,,0.00,0.0,WeatherDisplay:10.37,2013-05-07 02:35:00,
2013-05-06 21:40:00,53.0,41.9,30.01,NE,53,1.1,1.1,66,0.00,OVC,,0.00,0.0,WeatherDisplay:10.37,2013-05-07 02:40:00,
2013-05-06 21:45:00,52.6,41.6,30.01,NE,53,3.5,3.5,66,0.00,OVC,,0.00,0.0,WeatherDisplay:10.37,2013-05-07 02:45:00,
2013-05-06 21:50:00,52.3,41.3,30.01,ENE,62,4.6,4.6,66,0.00,OVC,,0.00,0.0,WeatherDisplay:10.37,2013-05-07 02:50:00,
2013-05-06 21:55:00,52.3,41.3,30.01,NE,53,4.6,4.6,66,0.00,OVC,,0.00,0.0,WeatherDisplay:10.37,2013-05-07 02:55:00,
2013-05-06 22:00:00,52.2,41.6,30.01,NE,53,3.5,3.5,67,0.00,OVC,,0.00,0.0,WeatherDisplay:10.37,2013-05-07 03:00:00,
2013-05-06 22:05:00,52.0,42.1,30.01,NE,49,3.5,3.5,69,0.00,OVC,,0.00,0.0,WeatherDisplay:10.37,2013-05-07 03:05:00,
2013-05-06 22:10:00,51.7,41.9,30.01,NE,49,2.3,2.3,69,0.00,OVC,,0.00,0.0,WeatherDisplay:10.37,2013-05-07 03:10:00,
2013-05-06 22:15:00,51.4,41.6,30.01,NNE,22,3.5,3.5,69,0.00,OVC,,0.00,0.0,WeatherDisplay:10.37,2013-05-07 03:15:00,
2013-05-06 22:20:00,51.2,41.7,30.00,North,5,3.5,3.5,70,0.00,OVC,,0.00,0.0,WeatherDisplay:10.37,2013-05-07 03:20:00,
2013-05-06 22:25:00,51.0,41.2,30.00,North,350,4.6,4.6,69,0.00,OVC,,0.00,0.0,WeatherDisplay:10.37,2013-05-07 03:25:00,
2013-05-06 22:30:00,50.9,41.1,30.00,NNW,346,4.6,4.6,69,0.00,OVC,,0.00,0.0,WeatherDisplay:10.37,2013-05-07 03:30:00,
2013-05-06 22:35:00,50.7,40.9,30.00,North,350,4.6,4.6,69,0.00,OVC,,0.00,0.0,WeatherDisplay:10.37,2013-05-07 03:35:00,
2013-05-06 22:40:00,50.4,40.6,30.00,North,349,3.5,3.6,69,0.00,OVC,,0.00,0.0,WeatherDisplay:10.37,2013-05-07 03:40:00,
2013-05-06 22:45:00,50.2,40.4,30.00,North,350,3.5,3.5,69,0.00,OVC,,0.00,0.0,WeatherDisplay:10.37,2013-05-07 03:45:00,
2013-05-06 22:50:00,49.9,40.9,30.00,North,350,3.5,3.5,71,0.00,SCT,,0.00,0.0,WeatherDisplay:10.37,2013-05-07 03:50:00,
2013-05-06 22:55:00,49.7,40.7,30.00,NNW,340,3.5,3.5,71,0.00,SCT,,0.00,0.0,WeatherDisplay:10.37,2013-05-07 03:55:00,
2013-05-06 23:00:00,49.5,40.8,30.00,NNW,335,3.5,3.5,72,0.00,SCT,,0.00,0.0,WeatherDisplay:10.37,2013-05-07 04:00:00,
2013-05-06 23:01:00,49.5,40.8,30.00,NNW,336,3.5,3.5,72,0.00,CLR,,0.00,0.0,WeatherDisplay:10.37,2013-05-07 04:01:00,
2013-05-06 23:06:00,49.4,40.7,30.00,NNW,336,1.1,1.1,72,0.00,CLR,,0.00,0.0,WeatherDisplay:10.37,2013-05-07 04:06:00,
2013-05-06 23:11:00,49.2,40.6,30.00,NNW,336,0.0,0.0,72,0.00,CLR,,0.00,0.0,WeatherDisplay:10.37,2013-05-07 04:11:00,
2013-05-06 23:16:00,49.0,40.7,30.00,NNW,336,2.3,2.3,73,0.00,CLR,,0.00,0.0,WeatherDisplay:10.37,2013-05-07 04:16:00,
2013-05-06 23:21:00,48.7,40.4,30.00,NNW,336,3.5,3.5,73,0.00,CLR,,0.00,0.0,WeatherDisplay:10.37,2013-05-07 04:21:00,
2013-05-06 23:26:00,48.6,40.7,30.00,NNW,337,3.5,3.5,74,0.00,CLR,,0.00,0.0,WeatherDisplay:10.37,2013-05-07 04:26:00,
2013-05-06 23:31:00,48.4,40.8,30.00,NNW,338,3.5,3.5,75,0.00,CLR,,0.00,0.0,WeatherDisplay:10.37,2013-05-07 04:31:00,
2013-05-06 23:36:00,48.2,40.6,30.00,NNW,338,3.5,3.5,75,0.00,CLR,,0.00,0.0,WeatherDisplay:10.37,2013-05-07 04:36:00,
2013-05-06 23:41:00,48.2,40.6,30.00,NNW,338,3.5,3.5,75,0.00,CLR,,0.00,0.0,WeatherDisplay:10.37,2013-05-07 04:41:00,
2013-05-06 23:46:00,48.0,40.5,30.00,NNW,338,4.0,4.0,75,0.00,CLR,,0.00,0.0,WeatherDisplay:10.37,2013-05-07 04:46:00,
2013-05-06 23:51:00,48.2,40.6,30.00,NNW,337,4.0,4.0,75,0.00,CLR,,0.00,0.0,WeatherDisplay:10.37,2013-05-07 04:51:00,
2013-05-06 23:56:00,48.3,40.7,30.00,NNW,337,3.5,3.5,75,0.00,CLR,,0.00,0.0,WeatherDisplay:10.37,2013-05-07 04:56:00,